           , 2.000,  2.148,  2.295,  2.443,  2.591,  2.739,  2.886,  3.034,  3.182,  3.329,  3.477,  3.625,  3.773,  3.920,  4.068,  4.216,  4.363,  4.511,  4.659,  4.807,  4.954,  5.102,  5.250,  5.398,  5.545,  5.693,  5.841,  5.988,  6.136,  6.284,  6.432,  6.579,  6.727,  6.875,  7.022,  7.170,  7.318,  7.466,  7.613,  7.761,  7.909,  8.056,  8.204,  8.352,  8.500,  8.647,  8.795,  8.943,  9.091,  9.238,  9.386,  9.534,  9.681,  9.829,  9.977, 10.125, 10.272, 10.420, 10.568, 10.715, 10.863, 11.011, 11.159, 11.306, 11.454, 11.602, 11.750, 11.897, 12.045, 12.193, 12.340, 12.488, 12.636, 12.784, 12.931, 13.079, 13.227, 13.374, 13.522, 13.670, 13.818, 13.965, 14.113, 14.261, 14.409, 14.556, 14.704, 14.852, 14.999, 15.147, 15.295, 15.443, 15.590, 15.738, 15.886, 16.033, 16.181, 16.329, 16.477, 16.624, 16.772, 16.920, 17.067, 17.215, 17.363, 17.511, 17.658, 17.806, 17.954, 18.102, 18.249, 18.397, 18.545, 18.692, 18.840, 18.988, 19.136, 19.283, 19.431, 19.579
2023/05/30 00:05,   -1.3,   -0.2,    1.3,    2.5,    2.7,    2.4,    0.8,   -0.4,   -1.0,   -2.6,   -3.2,   -3.9,   -3.9,   -5.0,   -5.0,   -4.8,   -4.6,   -3.9,   -3.8,   -3.1,   -2.3,   -3.1,   -3.4,   -3.3,   -2.9,   -3.0,   -2.7,   -3.1,   -2.9,   -4.0,   -4.5,   -2.8,   -2.9,   -2.9,   -4.3,   -5.6,   -7.2,   -8.6,   -9.0,   -6.9,   -5.5,   -3.8,   -3.0,   -2.5,   -1.4,    0.0,    1.6,    1.9,    2.4,    2.6,    2.9,    2.4,    2.3,    2.4,    1.7,    0.6,    0.7,    0.6,    0.7,    0.4,   -0.5,   -1.4,   -2.3,   -3.9,   -5.4,   -7.1,   -8.6,  -10.3,  -11.6,  -12.7,  -14.5,  -16.8,  -18.9,  -20.5,  -19.7,  -17.5,  -17.3,  -17.7,  999.0,  999.0,  -13.0,   -9.4,  -11.0,   -2.1,  999.0,  999.0,   -1.7,   -0.4,   -2.2,   -2.3,   -0.9,  999.0,   -7.3,   -2.6,   -5.4,   -2.6,   -3.1,   -8.8,  -10.2,  -10.3,   -6.8,   -5.6,   -6.8,   -7.7,   -9.8,  -12.8,  -12.9,  -14.3,  999.0,   -8.6,  999.0,   -9.3,  -10.0,  -13.3,  -15.9,  -11.5,  -11.9,  -11.2,   -4.3,   -3.0
2023/05/30 00:15,   -2.1,   -1.9,   -0.6,    1.1,    2.6,    2.4,    0.9,    0.0,   -0.8,   -0.6,   -1.5,   -2.2,   -2.5,   -3.1,   -3.8,   -4.5,   -4.8,   -2.8,   -4.8,   -4.5,   -4.1,   -3.9,   -3.1,   -2.8,   -3.2,   -3.0,   -2.5,   -2.9,   -2.9,   -3.3,   -2.7,   -2.6,   -2.1,   -2.7,   -3.7,   -5.1,   -6.5,   -8.2,   -9.0,   -9.2,   -7.3,   -5.5,   -4.6,   -4.0,   -2.4,    0.1,    1.3,    2.0,    1.9,    2.0,    1.9,    1.9,    1.8,    1.4,    1.1,    0.8,    0.9,    0.5,    0.4,    0.0,   -0.6,   -0.9,   -1.6,   -2.9,   -3.8,   -5.5,   -6.4,   -8.4,   -9.8,  -10.9,  -13.5,  -15.3,  -18.2,  -19.1,  -17.8,  -18.0,  -18.3,  -19.3,  -17.9,  -19.7,  999.0,  -16.6,  999.0,  999.0,  999.0,  999.0,   -0.2,    0.0,    0.0,   -3.4,   -1.9,   -3.4,   -9.3,   -4.8,   -7.0,   -4.1,   -4.4,   -8.7,   -9.1,   -8.8,   -5.5,   -6.1,   -5.3,   -6.8,   -9.6,  -12.5,  -14.3,  -14.8,  -15.2,  999.0,  999.0,   -7.8,  -10.5,  -13.8,  -15.6,  -10.6,  -11.5,  -11.1,   -6.1,   -3.6
2023/05/30 00:25,   -3.2,   -2.5,   -1.1,    0.4,    0.8,    1.0,    0.2,   -0.1,    0.1,   -0.1,    0.1,   -0.2,   -0.3,   -1.0,   -1.9,   -2.6,   -3.1,   -3.1,   -3.6,   -4.2,   -3.7,   -3.1,   -2.5,   -2.2,   -2.1,   -2.4,   -2.6,   -2.1,   -2.0,   -1.5,   -1.6,   -2.0,   -3.0,   -3.9,   -5.3,   -6.0,   -7.4,   -9.2,   -9.0,   -7.1,   -5.6,   -4.7,   -4.2,   -3.2,   -1.1,    0.8,    1.2,    1.7,    2.4,    2.3,    1.9,    1.6,    0.9,    0.7,    0.1,    0.4,    0.3,   -0.1,   -0.4,   -0.6,   -1.1,   -1.6,   -2.5,   -3.9,   -5.2,   -6.3,   -8.3,  -10.1,  -12.0,  -13.0,  -15.5,  -17.1,  -20.3,  -20.0,  -18.8,  -19.0,  -16.1,  -20.7,  -19.4,  -16.3,  -16.1,  -16.5,  -13.6,   -7.5,   -0.4,  999.0,   -0.0,   -1.2,  999.0,   -5.2,   -3.5,  -10.6,   -9.9,   -5.8,   -6.0,   -3.8,   -7.1,  -10.0,  -10.3,   -8.8,   -5.5,  999.0,   -7.0,   -7.1,  -10.2,  -13.2,  -14.7,  -14.3,  -14.6,  999.0,  999.0,  999.0,  999.0,  -13.8,  -15.2,  -14.3,  -10.6,  -11.0,   -5.9,   -2.7
2023/05/30 00:35,   -2.5,   -2.8,   -2.3,   -1.9,   -1.4,   -1.6,   -0.6,    0.2,   -0.1,    0.3,    0.1,    0.4,    0.0,   -1.0,   -1.6,   -2.3,   -2.4,   -2.3,   -2.8,   -3.5,   -4.0,   -3.7,   -3.6,   -3.4,   -2.7,   -2.1,   -2.4,   -1.9,   -1.8,   -2.0,   -3.0,   -4.3,   -5.5,   -6.5,   -6.6,   -7.1,   -6.5,   -5.4,   -5.2,   -6.1,   -7.7,   -9.2,   -8.2,   -5.5,   -2.9,   -1.4,    0.2,    1.2,    1.4,    2.6,    2.6,    1.1,    0.1,   -0.6,   -1.2,   -0.2,    0.1,    0.2,   -0.5,   -1.3,   -2.3,   -3.3,   -4.4,   -5.3,   -7.1,   -8.4,  -10.0,  -12.0,  -13.6,  -13.8,  -16.3,  -19.0,  -21.1,  -18.6,  -19.0,  -20.2,  -16.7,  999.0,  999.0,  -13.6,  -15.0,  -14.8,  -15.7,  999.0,   -4.0,   -1.9,   -1.1,   -5.5,   -5.0,   -7.0,   -5.1,   -8.9,   -9.8,   -4.7,   -5.3,  999.0,   -9.0,  -11.9,  -11.7,   -9.3,   -5.3,   -8.7,  999.0,   -6.7,   -8.1,  -10.6,  -15.1,  -14.0,  -14.3,   -8.4,  999.0,  999.0,  999.0,  -13.9,  -16.9,  -13.2,  -10.4,   -9.5,   -5.8,   -3.5
2023/05/30 00:45,   -2.8,   -3.1,   -3.9,   -5.3,   -4.3,   -2.9,   -1.2,   -0.6,   -0.5,    0.1,    0.6,    0.4,    1.1,    0.6,   -0.5,   -1.8,   -2.0,   -1.4,   -2.7,   -2.5,   -2.7,   -2.5,   -2.0,   -3.0,   -3.3,   -3.6,   -3.9,   -3.8,   -4.1,   -3.8,   -4.1,   -4.4,   -5.7,   -6.7,   -7.0,   -6.7,   -4.9,   -3.2,   -3.9,   -5.3,   -6.7,   -7.7,   -7.6,   -6.6,   -4.4,   -2.7,   -1.1,   -0.1,    0.5,    1.1,    1.1,    1.1,   -0.0,   -0.7,   -1.0,    0.2,    1.2,    0.1,   -0.2,   -1.1,   -1.9,   -3.2,   -4.1,   -4.9,   -6.3,   -7.8,   -8.8,  -10.7,  -11.9,  -13.5,  -15.5,  -17.9,  -20.1,  -18.1,  -19.2,  -19.8,  999.0,  -12.9,  -14.5,  -15.3,  -16.3,  999.0,  -16.2,  999.0,  -15.5,  999.0,   -0.9,  999.0,   -4.5,   -3.9,   -5.0,   -4.0,   -8.7,  999.0,   -5.7,   -6.1,   -8.6,  -11.1,  -10.7,  -11.8,   -8.5,   -8.3,  999.0,   -6.1,   -7.5,  -10.4,  -15.3,  -14.1,  -12.9,  -12.3,  999.0,  999.0,  999.0,  -14.5,  -16.8,  999.0,  -10.1,   -9.1,   -5.3,   -3.2
2023/05/30 00:55,   -3.1,   -3.1,   -3.2,   -3.5,   -3.9,   -3.7,   -2.9,   -2.7,   -2.5,   -1.8,   -0.4,   -0.1,   -0.4,   -0.7,   -1.6,   -1.4,   -1.5,   -2.4,   -2.2,   -2.1,   -2.4,   -2.2,   -2.2,   -2.3,   -2.7,   -2.1,   -2.3,   -2.7,   -3.2,   -2.9,   -2.8,   -3.4,   -3.7,   -4.4,   -4.8,   -4.4,   -4.3,   -3.3,   -2.9,   -4.3,   -6.4,   -6.8,   -7.2,   -6.1,   -4.3,   -1.8,   -0.3,    0.0,    0.5,    1.0,    0.4,   -0.3,   -0.8,   -1.6,   -1.2,   -0.8,   -0.0,   -0.6,   -0.1,   -1.1,   -2.0,   -2.0,   -3.9,   -4.9,   -5.7,   -6.6,   -8.2,  -10.2,  -11.2,  -11.9,  -14.8,  -17.0,  -20.2,  -19.5,  -20.9,  -17.0,  -18.6,  999.0,  -14.9,  -15.6,  -13.9,  -16.0,  999.0,  999.0,  -15.5,  999.0,   -4.2,   -3.9,   -3.5,   -1.1,   -5.1,   -6.9,  -11.9,  999.0,   -3.2,   -4.7,   -7.0,  -11.0,  -11.6,  -11.2,   -8.4,   -6.6,  999.0,   -5.0,   -7.2,  -10.9,  -14.7,  -14.7,  -12.1,  999.0,  999.0,  999.0,  999.0,  -14.2,  -17.6,  -19.0,  999.0,  -10.5,   -7.3,   -3.7
2023/05/30 01:05,   -2.6,   -3.1,   -3.1,   -3.0,   -3.4,   -2.1,   -1.6,   -1.6,   -1.5,   -1.6,   -1.8,   -1.0,   -0.9,   -1.4,   -1.3,   -1.5,   -0.9,   -0.3,   -0.8,   -0.2,   -0.2,   -0.9,   -1.3,   -0.7,   -1.9,   -2.0,   -0.9,   -0.9,   -1.4,   -1.7,   -2.4,   -2.2,   -2.5,   -3.3,   -2.8,   -2.7,   -2.5,   -2.1,   -1.5,   -2.8,   -5.0,   -6.6,   -6.5,   -5.4,   -4.1,   -1.8,    0.4,    0.5,    1.7,    1.9,    1.6,    0.3,   -0.5,   -0.7,   -0.8,   -1.4,   -1.5,   -3.0,   -2.8,   -3.3,   -3.8,   -4.2,   -5.1,   -5.7,   -6.4,   -7.9,   -9.0,  -10.2,  -10.9,  -11.4,  -13.5,  -15.5,  -18.7,  -18.9,  -20.1,  -18.8,  -19.2,  999.0,  -16.3,  -17.2,  999.0,  999.0,  999.0,  999.0,  -15.1,  -16.0,  -13.6,  -11.2,  999.0,   -5.5,   -5.0,   -9.5,  -12.3,  999.0,   -4.3,   -8.8,  999.0,  -12.0,  -12.3,  -11.9,  -10.0,  999.0,   -0.9,   -5.7,   -7.3,  -12.0,  -15.3,  -14.4,  -14.3,   -9.1,  999.0,  999.0,  999.0,  -13.3,  -15.9,  -17.9,  -10.6,  -11.4,   -7.0,   -3.3
2023/05/30 01:15,   -3.7,   -3.4,   -3.5,   -4.2,   -4.5,   -4.4,   -3.4,   -3.9,   -2.8,   -1.8,   -2.1,   -1.8,   -2.9,   -3.3,   -2.3,   -2.1,   -2.0,   -1.7,   -1.1,   -0.8,    0.0,    0.3,    0.2,   -0.1,   -0.4,   -1.0,   -0.9,   -0.7,   -1.4,   -1.3,   -1.4,   -2.2,   -2.3,   -2.2,   -3.6,   -4.1,   -4.2,   -3.0,   -3.3,   -3.0,   -1.6,   -1.1,   -2.0,   -2.6,   -2.5,   -2.0,   -0.3,    0.9,    1.8,    1.5,    0.5,   -0.0,   -0.4,   -0.4,   -0.5,   -0.4,   -0.6,   -1.3,   -1.8,   -3.3,   -3.9,   -4.7,   -5.3,   -6.0,   -6.9,   -8.0,   -8.2,   -7.5,   -9.1,  -10.5,  -11.4,  -12.8,  -15.9,  -17.3,  -18.6,  -14.4,  -18.8,  -16.0,  999.0,  999.0,  -17.1,  999.0,  999.0,  -16.2,  -15.9,  -15.9,  -10.2,   -9.3,  999.0,   -6.3,   -3.8,   -7.9,   -4.8,  999.0,   -6.0,   -6.0,   -8.0,  -13.2,  -12.9,  -12.1,  -10.6,  -14.8,  999.0,   -5.8,   -7.8,  -12.3,  999.0,  -14.1,  -15.1,  -10.3,  999.0,   -8.0,  999.0,  -13.0,  -16.1,  -16.5,  -12.3,  -11.2,  999.0,   -2.6
2023/05/30 01:25,   -2.1,   -1.6,   -2.5,   -3.0,   -3.2,   -3.1,   -2.9,   -2.7,   -1.4,   -1.1,   -1.1,   -1.4,   -2.4,   -3.6,   -2.2,   -2.0,   -0.2,   -1.5,   -3.4,   -3.0,   -2.7,   -2.7,   -2.4,   -2.9,   -2.9,   -2.5,   -2.5,   -2.6,   -2.7,   -2.4,   -2.7,   -2.6,   -3.0,   -3.1,   -2.3,   -2.2,   -1.7,   -1.5,   -1.1,   -0.9,   -0.9,   -0.6,   -0.5,   -1.6,   -2.4,   -2.5,   -0.9,    0.8,    1.1,    0.6,    0.2,   -0.1,   -0.5,   -0.2,   -1.4,   -1.5,   -1.7,   -2.3,   -3.0,   -2.7,   -3.7,   -4.7,   -6.5,   -6.9,   -7.9,   -8.1,   -7.8,   -7.3,   -9.2,   -9.8,  -11.4,  -13.2,  -16.2,  -18.0,  -18.7,  -14.6,  999.0,  999.0,  999.0,  -18.0,  -18.8,  -21.8,  -16.3,  -16.6,  -18.4,  -10.1,  999.0,   -9.5,   -5.6,   -4.5,   -4.8,  999.0,   -2.0,  999.0,   -6.6,   -8.9,   -4.3,  999.0,  -14.2,  -13.5,  -11.3,   -6.4,  999.0,   -5.3,   -7.1,   -9.3,  -14.5,  -15.1,  -14.5,  -14.4,  999.0,  999.0,  999.0,  -15.8,  -15.7,  -15.0,  -12.1,  -11.3,  999.0,  999.0
2023/05/30 01:35,   -1.4,   -2.0,   -2.4,   -3.1,   -3.6,   -4.4,   -3.1,   -2.3,   -1.3,   -1.1,   -2.0,   -2.7,   -3.5,   -3.0,   -3.2,   -3.2,   -4.2,   -2.7,   -3.2,   -2.9,   -3.2,   -3.6,   -3.0,   -4.3,   -4.4,   -4.3,   -3.5,   -3.4,   -4.0,   -3.4,   -3.3,   -3.2,   -2.6,   -2.3,   -1.5,   -0.6,   -0.7,   -0.9,   -0.9,   -2.2,   -1.6,   -3.5,   -2.3,   -3.5,   -2.7,   -0.7,   -0.5,    0.3,    1.2,    1.1,    1.1,    1.5,    0.8,    0.5,   -0.7,   -1.9,   -2.4,   -3.2,   -2.7,   -2.7,   -3.5,   -4.2,   -6.1,   -7.2,   -8.3,   -8.1,   -8.5,   -8.6,   -8.9,  -10.5,  -11.2,  -13.2,  -17.5,  -18.4,  -19.4,  999.0,  999.0,  999.0,  999.0,  999.0,  -19.9,  999.0,  -14.4,  -15.4,  -10.5,   -7.4,   -7.1,   -5.5,   -4.2,   -5.9,   -4.3,   -8.6,   -5.2,  999.0,  999.0,   -8.4,  999.0,  999.0,  -13.5,  -13.4,  -12.1,   -8.3,  999.0,   -3.1,   -6.6,  999.0,  -16.8,  -17.2,  -14.4,  -15.5,  999.0,  999.0,  999.0,  999.0,  -15.3,  -17.1,  -10.2,  -10.9,  999.0,  999.0
